Hourly Weather Abella de la Conca

Today, 25 February, Thursday

Time Temperature Precipitation Wind Pressure Humidity
00:00 +4°C° 0 mm 1 mps 662 mmHg 86%
01:00 +4°C° 0 mm 1 mps 661 mmHg 84%
02:00 +3°C° 0 mm 1 mps 661 mmHg 81%
03:00 +3°C° 0 mm 1 mps 660 mmHg 79%
04:00 +3°C° 0 mm 1 mps 660 mmHg 76%
05:00 +3°C° 0 mm 1 mps 660 mmHg 73%
06:00 +2°C° 0 mm 1 mps 660 mmHg 70%
07:00 +4°C° 0 mm 1 mps 661 mmHg 63%
08:00 +6°C° 0 mm 1 mps 662 mmHg 55%
09:00 +7°C° 0 mm 0 mps 663 mmHg 48%
10:00 +10°C° 0 mm 1 mps 663 mmHg 44%
11:00 +11°C° 0 mm 1 mps 663 mmHg 40%
12:00 +13°C° 0 mm 1 mps 664 mmHg 37%
13:00 +13°C° 0 mm 1 mps 663 mmHg 37%
14:00 +13°C° 0 mm 1 mps 663 mmHg 38%
15:00 +13°C° 0 mm 1 mps 663 mmHg 39%
16:00 +11°C° 0 mm 1 mps 663 mmHg 47%
17:00 +8°C° 0 mm 0 mps 662 mmHg 56%
18:00 +6°C° 0 mm 0 mps 662 mmHg 64%
19:00 +6°C° 0 mm 0 mps 662 mmHg 64%
20:00 +6°C° 0 mm 1 mps 662 mmHg 64%
21:00 +6°C° 0 mm 1 mps 662 mmHg 64%
22:00 +6°C° 0 mm 1 mps 662 mmHg 64%
23:00 +5°C° 0 mm 1 mps 662 mmHg 63%

Tomorrow, 26 February, Friday

Time Temperature Precipitation Wind Pressure Humidity
00:00 +5°C° 0 mm 1 mps 662 mmHg 63%
01:00 +5°C° 0 mm 1 mps 662 mmHg 62%
02:00 +5°C° 0 mm 1 mps 662 mmHg 62%
03:00 +5°C° 0 mm 1 mps 662 mmHg 62%
04:00 +4°C° 0 mm 1 mps 662 mmHg 61%
05:00 +4°C° 0 mm 1 mps 662 mmHg 61%
06:00 +4°C° 0 mm 1 mps 662 mmHg 61%
07:00 +6°C° 0 mm 1 mps 662 mmHg 58%
08:00 +6°C° 0 mm 0 mps 663 mmHg 54%
09:00 +8°C° 0 mm 0 mps 664 mmHg 50%
10:00 +9°C° 0 mm 0 mps 664 mmHg 48%
11:00 +11°C° 0 mm 1 mps 664 mmHg 46%
12:00 +12°C° 0 mm 1 mps 665 mmHg 44%
13:00 +12°C° 0 mm 1 mps 664 mmHg 46%
14:00 +12°C° 0 mm 2 mps 664 mmHg 48%
15:00 +12°C° 0 mm 2 mps 663 mmHg 50%
16:00 +10°C° 0 mm 1 mps 663 mmHg 60%
17:00 +8°C° 0 mm 1 mps 662 mmHg 71%
18:00 +6°C° 0 mm 1 mps 661 mmHg 81%
19:00 +6°C° 0 mm 1 mps 661 mmHg 83%
20:00 +5°C° 0 mm 1 mps 661 mmHg 84%
21:00 +5°C° 0 mm 1 mps 661 mmHg 86%
22:00 +5°C° 0 mm 1 mps 661 mmHg 86%
23:00 +4°C° 0 mm 1 mps 661 mmHg 86%

Day after tomorrow, 27 February, Saturday

Time Temperature Precipitation Wind Pressure Humidity
00:00 +4°C° 0 mm 1 mps 661 mmHg 85%
01:00 +4°C° 0 mm 1 mps 661 mmHg 85%
02:00 +3°C° 0 mm 1 mps 661 mmHg 85%
03:00 +3°C° 0 mm 1 mps 661 mmHg 85%
04:00 +3°C° 0 mm 1 mps 660 mmHg 85%
05:00 +1°C° 0 mm 2 mps 660 mmHg 85%
06:00 +1°C° 0 mm 2 mps 660 mmHg 85%
07:00 +4°C° 0 mm 1 mps 661 mmHg 76%
08:00 +5°C° 0 mm 1 mps 661 mmHg 66%
09:00 +7°C° 0 mm 1 mps 662 mmHg 57%
10:00 +8°C° 0 mm 1 mps 662 mmHg 52%
11:00 +8°C° 0 mm 2 mps 662 mmHg 48%
12:00 +10°C° 0 mm 2 mps 663 mmHg 43%
13:00 +10°C° 0 mm 2 mps 662 mmHg 46%
14:00 +10°C° 0 mm 2 mps 662 mmHg 48%
15:00 +10°C° 0 mm 2 mps 661 mmHg 51%
16:00 +8°C° 0 mm 2 mps 661 mmHg 63%
17:00 +7°C° 0 mm 1 mps 660 mmHg 75%
18:00 +5°C° 0 mm 1 mps 659 mmHg 87%
19:00 +4°C° 0 mm 1 mps 660 mmHg 85%
20:00 +4°C° 0 mm 1 mps 660 mmHg 83%
21:00 +3°C° 0 mm 1 mps 660 mmHg 81%
22:00 +3°C° 0 mm 1 mps 660 mmHg 80%
23:00 +3°C° 0 mm 1 mps 659 mmHg 78%

28 February, Sunday

Time Temperature Precipitation Wind Pressure Humidity
00:00 +2°C° 0 mm 1 mps 659 mmHg 77%
01:00 +2°C° 0 mm 1 mps 659 mmHg 76%
02:00 +1°C° 0 mm 0 mps 659 mmHg 76%
03:00 +1°C° 0 mm 0 mps 659 mmHg 75%
04:00 +1°C° 0 mm 0 mps 659 mmHg 76%
05:00 +1°C° 0 mm 0 mps 658 mmHg 76%
06:00 +1°C° 0 mm 0 mps 658 mmHg 77%
07:00 +3°C° 0 mm 0 mps 659 mmHg 73%
08:00 +5°C° 0 mm 1 mps 659 mmHg 69%
09:00 +6°C° 0 mm 1 mps 660 mmHg 66%
10:00 +7°C° 0 mm 1 mps 660 mmHg 63%
11:00 +7°C° 0 mm 2 mps 660 mmHg 60%
12:00 +8°C° 0 mm 2 mps 660 mmHg 57%
13:00 +8°C° 0 mm 2 mps 660 mmHg 57%
14:00 +8°C° 0 mm 2 mps 660 mmHg 57%
15:00 +8°C° 0 mm 2 mps 659 mmHg 57%
16:00 +8°C° 0 mm 1 mps 659 mmHg 63%
17:00 +6°C° 0 mm 1 mps 658 mmHg 69%
18:00 +5°C° 0 mm 1 mps 658 mmHg 75%
19:00 +4°C° 0 mm 1 mps 658 mmHg 78%
20:00 +3°C° 0 mm 1 mps 658 mmHg 81%
21:00 +3°C° 0 mm 1 mps 658 mmHg 84%
22:00 +2°C° 0 mm 1 mps 658 mmHg 85%
23:00 +2°C° 0 mm 1 mps 658 mmHg 85%

1 March, Monday

Time Temperature Precipitation Wind Pressure Humidity
00:00 +2°C° 0 mm 1 mps 658 mmHg 86%
01:00 +2°C° 0 mm 1 mps 658 mmHg 85%
02:00 +2°C° 0 mm 1 mps 658 mmHg 85%
03:00 +2°C° 0 mm 1 mps 657 mmHg 84%
04:00 +2°C° 0 mm 1 mps 657 mmHg 81%
05:00 +2°C° 0 mm 1 mps 658 mmHg 79%
06:00 +2°C° 0 mm 1 mps 658 mmHg 76%
07:00 +4°C° 0 mm 1 mps 658 mmHg 67%
08:00 +6°C° 0 mm 1 mps 659 mmHg 58%
09:00 +9°C° 0 mm 1 mps 660 mmHg 49%
10:00 +10°C° 0 mm 1 mps 661 mmHg 46%
11:00 +10°C° 0 mm 2 mps 661 mmHg 42%
12:00 +12°C° 0 mm 2 mps 661 mmHg 39%
13:00 +12°C° 0 mm 2 mps 661 mmHg 40%
14:00 +12°C° 0 mm 2 mps 661 mmHg 41%
15:00 +12°C° 0 mm 2 mps 661 mmHg 42%
16:00 +10°C° 0 mm 1 mps 660 mmHg 50%
17:00 +8°C° 0 mm 1 mps 660 mmHg 57%
18:00 +6°C° 0 mm 1 mps 659 mmHg 65%
19:00 +6°C° 0 mm 1 mps 660 mmHg 67%
20:00 +5°C° 0 mm 1 mps 660 mmHg 69%
21:00 +4°C° 0 mm 1 mps 660 mmHg 71%
22:00 +4°C° 0 mm 1 mps 660 mmHg 73%
23:00 +4°C° 0 mm 1 mps 660 mmHg 74%

2 March, Tuesday

Time Temperature Precipitation Wind Pressure Humidity
00:00 +3°C° 0 mm 1 mps 660 mmHg 75%
01:00 +3°C° 0 mm 1 mps 660 mmHg 75%
02:00 +3°C° 0 mm 1 mps 660 mmHg 74%
03:00 +3°C° 0 mm 1 mps 660 mmHg 74%
04:00 +3°C° 0 mm 1 mps 660 mmHg 72%
05:00 +3°C° 0 mm 1 mps 660 mmHg 70%
06:00 +2°C° 0 mm 1 mps 660 mmHg 68%
07:00 +4°C° 0 mm 1 mps 661 mmHg 60%
08:00 +7°C° 0 mm 1 mps 662 mmHg 53%
09:00 +9°C° 0 mm 1 mps 662 mmHg 45%
10:00 +10°C° 0 mm 1 mps 663 mmHg 41%
11:00 +11°C° 0 mm 1 mps 663 mmHg 37%
12:00 +12°C° 0 mm 2 mps 664 mmHg 33%
13:00 +12°C° 0 mm 1 mps 663 mmHg 36%
14:00 +12°C° 0 mm 1 mps 663 mmHg 39%
15:00 +12°C° 0 mm 1 mps 663 mmHg 42%
16:00 +10°C° 0 mm 1 mps 662 mmHg 48%
17:00 +8°C° 0 mm 1 mps 662 mmHg 55%
18:00 +6°C° 0 mm 0 mps 662 mmHg 61%
19:00 +5°C° 0 mm 0 mps 662 mmHg 63%
20:00 +5°C° 0 mm 0 mps 662 mmHg 64%
21:00 +5°C° 0 mm 0 mps 663 mmHg 65%
22:00 +4°C° 0 mm 0 mps 662 mmHg 67%
23:00 +4°C° 0 mm 0 mps 662 mmHg 70%
Show more

We Need Your Consent

Meteoprog and our Service Providers may store and access personal data such as cookies, device identifiers or other similar technologies on your device and process such data to personalise content and ads, as well as provide social media features and to analyse the traffic.

  • Store and/or access information on your device

    Cookies, device identifiers or other information can be stored or accessed on your device for the purposes indicated above.

  • Personalised ads and content, ad and content measurement, audience insights, and products development

    Ads and content can be personalised based on a profile. More data can be added to better personalise ads and content. Ad and content performance can be measured. Insights about the audience who saw the ads and content can be derived. Such data can be used to develop or improve user’s experience, systems and software.

By clicking ‘I Agree’ you will allow the use of indicated cookies, device identifiers, web beacons or other similar technologies. Your settings can be changed in the browser on your device.

For certain purposes, legitimate interests may be relied on, rather than consent. You can read more about this in our Privacy and Cookie Policy.